Weather History for Budapest Ferihegy, Hungary

Change the Weather History Date:

Friday, November 9, 2012

  Actual Average Record
Temperature  
Mean Temperature 44 °F -  
Max Temperature 55 °F 43 °F 64 °F (1997)
Min Temperature 32 °F 30 °F 28 °F (2002)
Degree Days  
Heating Degree Days 21    
Moisture  
Dew Point 38 °F    
Average Humidity 82    
Maximum Humidity 93    
Minimum Humidity 54    
Precipitation  
Precipitation 0.00 in - - ()
Sea Level Pressure  
Sea Level Pressure 30.08 in    
Wind  
Wind Speed 5 mph ()    
Max Wind Speed 17 mph    
Max Gust Speed -    
Visibility 5.1 miles    
Events      
Averages and records for this station are not official NWS values.
T = Trace of Precipitation, MM = Missing Value Source: Averaged Metar Reports

Daily Weather History Graph

Daily Weather History Graph

Search for Another Location

Airport:

Trip Planner

Search our weather history database for the weather conditions in past years. The results will help you decide how hot, cold, wet, or windy it might be!

Date:

Astronomy

Nov. 09, 2012 Rise Set
Actual Time 6:38 AM CET 4:14 PM CET
Civil Twilight 6:06 AM CET 4:46 PM CET
Nautical Twilight 5:29 AM CET 5:23 PM CET
Astronomical Twilight 4:53 AM CET 5:59 PM CET
Moon 12:57 AM CET (11/9) 1:35 PM CET (11/9)
Length of Visible Light 10h 40m
Length of Day
9h 35m
Waning Crescent, 25% of the Moon is Illuminated
Nov 9
Waning Crescent
Nov 13
New
Nov 20
First Quarter
Nov 28
Full
Dec 6
Last Quarter

Hourly Weather History & Observations

Time (CET) Temp. Windchill Dew Point Humidity Pressure Visibility Wind Dir Wind Speed Gust Speed Precip Events Conditions
12:00 AM 37.4 °F 34.9 °F 35.6 °F 93% 30.06 in - Variable 3.5 mph - N/A   Clear
12:30 AM 39.2 °F 37.0 °F 35.6 °F 87% 30.06 in - Variable 3.5 mph - N/A   Clear
1:00 AM 39.2 °F 37.0 °F 37.4 °F 93% 30.06 in - Variable 3.5 mph - N/A   Clear
1:30 AM 39.2 °F 35.9 °F 37.4 °F 93% 30.06 in - ESE 4.6 mph - N/A   Clear
2:00 AM 41.0 °F 39.0 °F 37.4 °F 87% 30.04 in - Variable 3.5 mph - N/A   Clear
2:30 AM 41.0 °F - 37.4 °F 87% 30.04 in - Variable 2.3 mph - N/A   Clear
3:00 AM 39.2 °F - 37.4 °F 93% 30.04 in - Variable 2.3 mph - N/A   Clear
3:30 AM 39.2 °F - 37.4 °F 93% 30.04 in - Variable 1.2 mph - N/A   Clear
4:00 AM 37.4 °F - 35.6 °F 93% 30.04 in - Variable 1.2 mph - N/A   Clear
4:30 AM 39.2 °F - 37.4 °F 93% 30.04 in - Variable 2.3 mph - N/A   Clear
5:00 AM 39.2 °F - 37.4 °F 93% 30.04 in - Variable 1.2 mph - N/A   Clear
5:30 AM 39.2 °F 37.0 °F 37.4 °F 93% 30.04 in - Variable 3.5 mph - N/A   Clear
6:00 AM 41.0 °F - 39.2 °F 93% 30.04 in 5.0 mi Variable 2.3 mph - N/A   Unknown
6:30 AM 41.0 °F - 39.2 °F 93% 30.04 in 4.3 mi Calm Calm - N/A   Unknown
7:00 AM 41.0 °F - 39.2 °F 93% 30.04 in 4.3 mi Variable 1.2 mph - N/A   Unknown
7:30 AM 41.0 °F 38.0 °F 39.2 °F 93% 30.06 in 4.3 mi SW 4.6 mph - N/A   Unknown
8:00 AM 42.8 °F - 41.0 °F 93% 30.06 in - Variable 2.3 mph - N/A   Clear
8:30 AM 46.4 °F 42.4 °F 41.0 °F 81% 30.06 in - West 8.1 mph - N/A   Clear
9:00 AM 46.4 °F 40.4 °F 41.0 °F 81% 30.06 in - West 13.8 mph - N/A   Clear
9:30 AM 48.2 °F - 42.8 °F 82% 30.06 in 6.2 mi WNW 16.1 mph - N/A   Mostly Cloudy
10:00 AM 48.2 °F - 42.8 °F 82% 30.06 in 6.2 mi WNW 13.8 mph - N/A   Partly Cloudy
10:30 AM 50.0 °F - 41.0 °F 71% 30.06 in 6.2 mi WNW 15.0 mph - N/A   Partly Cloudy
11:00 AM 51.8 °F - 42.8 °F 71% 30.06 in 6.2 mi WNW 12.7 mph - N/A   Partly Cloudy
11:30 AM 53.6 °F - 41.0 °F 62% 30.06 in 6.2 mi WNW 16.1 mph - N/A   Partly Cloudy
12:00 PM 53.6 °F - 41.0 °F 62% 30.06 in 6.2 mi WNW 15.0 mph - N/A   Partly Cloudy
12:30 PM 53.6 °F - 41.0 °F 62% 30.06 in 6.2 mi WNW 13.8 mph - N/A   Partly Cloudy
1:00 PM 55.4 °F - 39.2 °F 54% 30.06 in 6.2 mi WNW 15.0 mph - N/A   Scattered Clouds
1:30 PM 53.6 °F - 39.2 °F 58% 30.06 in 6.2 mi WNW 17.3 mph - N/A   Scattered Clouds
2:00 PM 51.8 °F - 37.4 °F 58% 30.06 in 6.2 mi NW 16.1 mph - N/A   Scattered Clouds
2:30 PM 51.8 °F - 39.2 °F 62% 30.09 in 6.2 mi WNW 13.8 mph - N/A   Partly Cloudy
3:00 PM 51.8 °F - 39.2 °F 62% 30.09 in - WNW 9.2 mph - N/A   Clear
3:30 PM 51.8 °F - 39.2 °F 62% 30.09 in 6.2 mi NW 11.5 mph - N/A   Partly Cloudy
4:00 PM 50.0 °F - 39.2 °F 66% 30.09 in - WNW 12.7 mph - N/A   Clear
4:30 PM 46.4 °F 42.4 °F 37.4 °F 71% 30.09 in - WNW 8.1 mph - N/A   Clear
5:00 PM 46.4 °F 43.5 °F 37.4 °F 71% 30.12 in - WNW 5.8 mph - N/A   Clear
5:30 PM 44.6 °F 43.1 °F 37.4 °F 76% 30.12 in - Variable 3.5 mph - N/A   Clear
6:00 PM 46.4 °F 43.5 °F 39.2 °F 76% 30.12 in - ENE 5.8 mph - N/A   Clear
6:30 PM 44.6 °F 42.2 °F 39.2 °F 81% 30.12 in - North 4.6 mph - N/A   Clear
7:00 PM 41.0 °F - 37.4 °F 87% 30.15 in - Variable 2.3 mph - N/A   Clear
7:30 PM 41.0 °F - 37.4 °F 87% 30.15 in - Variable 2.3 mph - N/A   Clear
8:00 PM 37.4 °F - 35.6 °F 93% 30.15 in 4.3 mi Variable 2.3 mph - N/A   Unknown
8:30 PM 37.4 °F 34.9 °F 35.6 °F 93% 30.15 in 3.7 mi Variable 3.5 mph - N/A   Unknown
9:00 PM 37.4 °F - 35.6 °F 93% 30.15 in 3.7 mi Variable 1.2 mph - N/A   Unknown
9:30 PM 33.8 °F 30.8 °F 32.0 °F 93% 30.15 in 3.1 mi Variable 3.5 mph - N/A   Mist
10:00 PM 37.4 °F - 35.6 °F 93% 30.15 in 3.1 mi Variable 2.3 mph - N/A   Mist
11:00 PM 39.2 °F - 37.4 °F 93% 30.18 in 3.1 mi Variable 2.3 mph - N/A   Mist
11:30 PM 32.0 °F - 30.2 °F 93% 30.18 in 3.1 mi Calm Calm - N/A   Mist